SCP
-0 -0 -0 -0 -0 -0 -0 -0 -0 -0 -0 -0 -0 -0 -0 -0 -0 -0 -0 -0 -0 -0 -0 -0 -0 -0 -0 0 -0 -0 0 0 0 0 0 0 0 0 0 -0 0 0 0 0 0 0 0
0 -0 -0 -0 -0 -0 -0 -0 -0 -0 -0 -0 -0 -0 -0 -0 -0 -0 -0 0 -0 -0 -0 -0 -0 -0 -0 0 0 0 0 0 0 0 0 0 0 -0 0 -0 0 -0 -0 -0 -0 -0 0
0 -0 -0 -0 -0 -0 -0 -0 -0 -0 -0 -0 -0 -0 -0 -0 -0 -0 -0 -0 0 -0 -0 -0 -0 -0 -0 0 0 0 0 0 0 0 0 0 0 0 0 0 -0 0 0 0 0 0 0
0 -0 -0 -0 -0 -0 -0 -0 -0 -0 -0 -0 -0 -0 -0 -0 -0 -0 -0 -0 0 -0 -0 -0 -0 -0 0 0 0 0 0 0 0 0 0 0 0 0 0 0 0 0 0 0 0 0 0
0 0 0 -0 -0 -0 -0 -0 -0 -0 -0 -0 -0 -0 -0 -0 -0 -0 -0 -0 0 0 0 0 -0 0 -0 -0 0 0 0 0 0 0 -0 0 0 0 0 0 0 0 0 0 -0 -0 0
0 0 0 -0 -0 -0 -0 -0 -0 -0 -0 -0 -0 -0 -0 -0 -0 0 -0 0 0 0 0 0 0 0 -0 0 0 0 0 0 0 0 0 0 0 0 0 0 0 0 0 0 0 0 0
0 0 0 0 -0 -0 -0 -0 -0 -0 -0 -0 -0 -0 -0 -0 -0 -0 -0 0 0 0 0 0 0 0 -0 0 0 0 0 0 0 0 0 0 0 0 0 0 0 0 0 0 0 0 0
0 0 0 0 -0 -0 -0 -0 -0 -0 -0 -0 -0 -0 -0 -0 -0 -0 0 0 0 0 0 0 0 -0 -0 -0 0 0 0 0 0 0 0 0 0 0 0 0 0 0 0 0 0 0 0
-0 -0 -0 0 0 -0 -0 -0 -0 -0 -0 -0 -0 -0 -0 -0 -0 0 0 0 0 0 0 0 0 -0 0 0 0 -0 0 0 0 0 0 0 0 0 0 0 0 0 0 0 0 0 0
-0 -0 -0 0 0 -0 -0 -0 -0 -0 -0 -0 -0 -0 -0 -0 0 0 0 0 0 0 0 0 0 0 0 0 0 0 0 0 0 0 0 0 0 0 0 0 0 0 0 0 0 0 0
0 0 0 0 0 0 0 0 0 -0 -0 -0 -0 -0 -0 0 0 0 0 0 0 0 0 0 0 0 0 0 0 0 0 0 0 0 0 0 0 0 0 0 0 0 0 0 0 0 0
0 0 0 0 0 0 0 0 0 0 -0 -0 -0 0 0 0 0 0 0 0 0 0 0 0 0 0 0 0 0 0 0 0 0 0 0 0 0 0 0 0 0 0 0 0 0 0 0
0 0 0 0 0 0 0 0 0 0 -0 -0 -0 -0 0 0 0 0 0 0 0 0 0 0 0 0 0 0 0 0 0 0 0 0 0 0 0 0 0 0 0 0 0 0 0 0 0
0 0 0 0 0 0 0 0 0 0 -0 -0 -0 -0 0 0 0 0 0 0 0 0 0 0 0 0 0 0 0 0 0 0 0 0 0 0 0 0 0 0 0 0 0 0 0 0 0
0 0 0 0 0 0 0 0 0 0 0 -0 0 0 0 0 0 0 0 0 0 0 0 0 0 0 0 0 0 0 0 0 0 0 0 0 0 0 0 0 0 0 0 0 0 0 0
0 0 0 0 0 0 0 0 0 0 0 0 0 0 0 0 0 0 0 0 0 0 0 0 0 0 0 0 0 0 0 0 0 0 0 0 0 0 0 0 0 0 0 0 0 0 0
0 0 0 0 0 0 0 0 0 0 0 0 0 0 0 0 0 0 0 0 0 0 0 0 0 0 0 0 0 0 0 0 0 0 0 0 0 0 0 0 0 0 0 0 0 0 0
0 0 0 0 0 0 0 0 0 0 0 -0 0 0 0 0 0 0 0 0 0 0 0 0 0 0 0 0 0 0 0 0 0 0 0 0 0 0 0 0 0 0 0 0 0 0 0
0 0 0 0 0 0 0 0 0 0 0 -0 0 0 0 0 0 0 0 0 0 0 0 0 0 0 0 0 0 0 0 0 0 0 0 0 0 0 0 0 0 0 0 0 0 0 0
0 0 0 0 0 0 0 0 0 0 0 0 0 0 0 0 0 0 0 0 0 0 0 0 0 0 0 0 0 0 0 0 0 0 0 0 0 0 0 0 0 0 0 0 0 0 0
0 0 0 0 0 0 0 0 0 0 0 0 0 0 0 0 0 0 0 0 0 0 -0 0 0 0 0 0 0 0 0 0 0 0 0 0 0 0 0 0 0 0 0 0 0 0 0
0 0 0 0 0 0 0 0 0 0 0 0 0 0 0 0 0 0 0 0 0 0 0 0 0 0 0 0 0 0 0 0 0 0 0 0 0 0 0 0 0 0 0 0 0 0 0
0 0 0 0 0 0 0 0 0 0 0 0 0 0 0 0 0 0 0 0 0 0 0 0 0 0 0 0 0 0 0 0 0 0 0 0 0 0 0 0 0 0 0 0 0 0 0
0 0 0 0 0 0 0 0 0 0 0 0 0 0 0 0 0 0 0 0 0 0 0 0 0 0 0 0 0 0 0 0 0 0 0 0 0 0 0 0 0 0 0 0 0 0 0
0 0 0 0 0 0 0 0 0 0 0 0 0 0 0 0 0 0 0 0 0 0 0 0 0 0 0 0 0 0 0 0 0 0 0 0 0 0 0 0 0 0 0 0 0 0 0
0 0 0 0 0 0 0 0 0 0 0 0 0 0 0 0 0 0 0 0 0 0 -0 -0 0 0 0 0 0 0 0 0 0 0 0 0 0 0 0 0 0 0 0 0 0 0 0
0 0 0 0 0 0 0 0 0 0 0 0 0 0 0 0 0 0 0 0 0 0 0 0 0 -0 0 0 0 0 0 0 0 0 0 0 0 0 0 0 0 0 0 0 0 0 0
0 0 0 0 0 0 0 0 0 0 0 0 0 0 0 0 0 0 0 0 0 0 0 0 0 0 0 0 0 0 0 0 0 0 0 0 0 0 0 0 0 0 0 0 0 0 0
0 0 0 0 0 0 0 0 0 0 0 0 0 0 0 0 0 0 0 0 0 0 0 0 0 0 0 0 0 0 0 0 0 0 0 0 0 0 0 0 0 0 0 -0 0 0 0
Wind_Speed_500mb
56 57 58 59 62 63 64 63 61 57 52 44 36 31 29 30 32 30 24 11 5 5 5 8 13 20 25 11 4 10 11 12 19 22 29 28 33 19 8 10 23 5 9 38 36 37 37
54 55 56 58 60 62 63 63 61 57 53 46 38 30 28 28 31 32 25 11 3 4 7 9 14 20 26 6 8 11 10 7 4 12 17 17 12 21 12 10 4 14 33 42 39 51 56
55 55 55 57 60 62 62 62 62 59 53 48 41 32 26 25 28 29 23 10 3 4 7 11 17 24 28 10 8 17 18 20 15 12 17 11 17 13 15 15 10 16 15 20 14 22 9
54 55 57 59 61 63 64 63 62 60 57 50 43 36 26 22 23 24 20 10 7 11 14 17 20 25 19 11 13 16 16 18 9 9 18 21 28 19 8 10 12 9 7 8 16 15 8
55 56 58 60 61 63 67 67 65 62 59 54 47 39 32 23 19 19 15 14 13 12 15 18 18 11 16 7 16 10 11 10 18 18 19 21 23 16 5 6 10 11 3 8 15 17 9
56 57 58 59 62 64 66 68 70 66 61 56 51 44 35 25 20 16 17 21 16 17 18 19 23 16 12 4 5 1 6 8 20 22 28 15 12 3 7 9 5 10 7 8 13 13 17
56 57 58 59 61 63 66 68 68 68 65 60 54 46 38 28 19 15 10 16 24 6 14 28 36 34 50 14 19 10 13 8 13 15 7 22 7 12 17 16 12 7 7 12 14 19 8
57 58 58 60 62 64 65 67 67 68 66 62 56 50 40 28 12 11 15 19 16 34 30 39 44 49 49 42 18 18 20 8 6 9 17 13 8 15 17 10 3 8 10 13 10 7 12
56 56 57 59 62 65 68 68 68 67 67 62 58 52 42 26 9 10 19 15 18 27 14 37 19 30 33 30 31 27 31 8 3 7 13 9 17 12 4 7 9 6 4 9 15 9 5
56 56 56 57 59 63 67 70 70 68 64 64 57 54 46 23 7 4 13 20 33 30 8 12 9 10 23 18 10 23 29 14 3 7 10 11 8 13 16 13 7 7 8 9 16 13 10
56 57 58 58 59 62 65 69 70 69 66 61 58 54 43 28 6 3 16 18 22 15 7 7 9 10 19 15 5 8 36 18 14 15 6 18 14 24 19 19 10 13 8 8 10 14 5
56 57 57 59 62 64 67 69 72 71 69 63 54 50 45 28 12 8 12 19 17 9 10 6 13 12 6 14 20 9 23 19 12 10 8 20 30 10 13 15 9 5 5 12 8 6 1
55 56 58 61 63 66 68 69 70 70 69 67 57 45 43 27 8 6 11 8 9 6 11 4 5 5 4 11 9 5 10 6 5 7 12 11 9 11 6 6 15 16 14 9 10 8 10
54 55 57 60 61 64 69 72 71 68 67 69 60 48 38 24 16 3 7 9 4 9 8 5 7 9 5 10 10 6 5 5 11 10 7 9 13 10 4 4 6 9 13 9 8 6 10
55 52 55 57 60 62 67 73 74 71 68 72 62 48 33 7 18 7 3 6 13 10 6 8 7 4 5 5 7 15 10 9 8 3 7 5 10 7 3 5 7 8 10 12 7 7 3
54 53 55 58 61 66 70 70 73 74 70 68 67 51 16 22 18 14 7 11 10 11 28 4 7 4 4 9 7 10 5 7 11 12 7 7 9 6 8 6 3 9 5 10 5 8 12
57 55 58 58 61 64 67 68 69 71 70 66 47 28 9 10 19 8 6 14 12 28 28 12 11 6 8 6 9 5 11 12 4 8 8 3 5 9 6 4 10 11 6 5 4 8 9
49 46 51 57 60 61 63 65 67 69 70 65 37 11 4 14 8 4 6 9 10 15 23 15 10 15 14 9 6 7 12 8 37 11 11 7 7 8 16 14 24 14 24 10 6 15 8
43 47 53 56 58 60 62 64 64 61 62 63 46 23 17 19 4 5 15 12 12 12 13 11 8 12 11 13 6 12 10 13 33 7 6 3 4 8 17 13 8 8 6 6 7 4 12
47 53 56 57 58 58 58 59 58 53 48 48 17 7 17 19 14 9 12 10 13 22 26 20 18 25 13 12 11 9 6 6 26 16 15 5 10 16 26 21 8 21 29 23 14 5 24
57 57 56 54 55 55 54 53 51 48 42 34 6 7 11 9 7 18 9 10 26 15 12 32 13 12 9 7 5 10 7 6 5 13 4 5 10 11 17 20 22 34 41 36 39 40 28
54 52 51 50 50 50 49 50 50 48 38 15 14 15 21 24 32 21 8 7 23 17 16 26 17 22 11 8 13 13 9 9 12 6 3 1 15 8 39 24 31 46 36 35 37 45 46
46 46 46 46 46 46 46 45 45 44 38 13 18 24 12 15 10 9 10 14 33 24 20 33 35 20 12 16 17 17 20 15 15 11 11 12 7 5 50 15 20 30 26 41 36 38 33
42 42 42 42 42 42 41 39 37 35 33 28 26 20 10 8 7 9 31 40 25 30 25 39 45 20 24 53 35 18 22 26 27 25 41 14 12 9 21 2 19 16 9 15 16 18 17
39 39 39 39 38 38 38 36 34 31 27 25 22 12 9 9 15 32 36 33 49 49 36 39 28 25 52 31 8 10 9 10 11 21 22 28 9 5 6 12 23 23 12 9 9 5 1
37 37 37 36 36 36 36 34 32 29 27 24 14 5 12 18 4 23 28 31 23 13 14 17 54 61 31 5 2 5 8 2 8 10 6 14 19 12 6 9 10 5 20 39 8 7 10
36 35 35 34 34 34 33 32 31 30 26 25 22 12 18 22 40 23 17 16 19 24 18 38 31 25 33 3 5 9 11 10 9 9 3 10 5 10 14 13 8 3 14 16 2 9 35
34 33 33 33 33 33 33 32 29 30 27 27 33 15 20 22 70 78 77 60 48 38 16 28 24 9 7 4 6 8 7 2 7 9 12 7 1 5 6 7 10 30 8 3 8 27 34
32 32 32 32 33 32 33 33 33 29 28 26 37 26 30 42 68 88 99 98 91 81 63 40 27 31 8 7 6 7 8 4 14 9 10 8 9 5 7 10 21 22 17 28 35 41 42
Wind_Direction_500mb
34 32 29 28 26 24 22 20 20 20 18 17 13 13 13 12 10 6 0 357 8 348 335 347 355 353 1 342 283 52 62 58 50 22 20 26 31 9 4 325 342 79 320 334 323 310 300
32 30 27 24 22 21 19 17 15 14 14 13 9 4 3 5 7 4 360 356 0 353 347 339 339 340 345 323 340 359 6 356 111 47 11 1 1 338 321 317 6 314 321 308 306 306 292
27 26 24 22 20 17 15 13 11 10 9 9 6 357 352 355 360 3 1 359 294 288 317 327 331 332 324 282 330 324 311 328 305 296 326 320 335 334 335 325 325 299 314 319 303 308 294
25 23 21 19 18 16 13 10 9 7 5 4 4 358 344 340 351 355 4 355 317 283 285 300 313 317 287 256 270 306 322 307 289 295 288 303 302 287 248 284 328 295 71 360 293 339 287
20 19 17 16 18 18 15 12 9 5 3 360 359 357 348 330 334 344 341 339 305 294 294 298 312 322 286 266 243 316 287 254 307 322 258 287 288 255 268 64 359 11 248 292 312 290 279
17 15 14 13 12 12 11 10 8 5 1 359 355 353 349 331 325 324 328 346 326 282 274 297 276 293 252 194 345 293 245 280 304 306 294 269 240 336 18 79 238 254 275 277 288 277 342
11 9 8 7 7 5 5 5 4 3 1 358 353 351 347 335 319 326 327 353 358 349 305 268 271 258 282 283 314 267 255 292 349 291 280 313 100 230 230 205 211 241 254 268 273 302 341
7 4 3 1 0 0 1 1 1 359 359 357 352 349 347 337 315 328 339 333 339 326 293 286 267 262 262 267 283 305 221 208 22 307 329 354 280 265 220 232 293 297 297 300 291 287 331
3 1 360 359 358 357 357 358 357 357 354 356 353 347 345 340 294 312 344 3 334 331 298 301 237 233 246 232 225 263 211 163 143 285 306 209 249 327 314 293 313 299 246 277 279 295 311
1 360 359 358 357 356 354 354 354 354 351 350 355 345 344 346 311 315 40 24 341 324 35 278 193 226 216 209 257 256 223 201 145 258 276 266 278 334 327 305 135 223 228 285 304 343 304
358 358 357 356 354 353 352 350 350 351 350 347 350 345 343 334 309 303 320 335 335 327 346 203 176 194 190 192 234 213 205 180 181 213 159 243 287 295 295 262 183 231 240 270 278 253 34
354 355 354 353 352 351 350 348 347 348 347 344 344 344 335 323 241 338 333 320 314 45 264 227 155 197 170 235 252 205 185 218 249 198 219 244 264 217 238 288 188 253 3 335 328 112 87
349 349 349 349 349 349 349 347 345 344 344 340 341 336 327 308 254 296 333 351 39 154 300 59 95 50 257 240 272 272 195 189 204 300 285 296 252 309 155 41 353 35 47 336 344 1 221
343 343 343 345 347 347 347 347 346 345 343 339 336 331 316 301 182 276 4 55 194 252 288 47 12 317 235 353 290 217 200 264 287 185 257 214 322 166 26 85 240 266 158 164 259 233 256
336 338 338 341 343 344 345 344 342 342 345 340 340 334 322 210 161 151 174 97 213 235 338 5 339 276 292 24 30 29 341 241 247 99 198 247 243 291 79 96 91 293 292 210 214 245 340
336 336 339 341 342 342 343 347 345 343 342 345 342 333 333 173 176 175 97 224 238 280 293 188 204 283 264 320 20 27 273 292 342 55 52 322 306 273 345 27 302 158 245 305 355 300 251
335 341 341 340 340 341 342 344 349 346 344 350 350 335 65 169 186 204 183 231 262 285 291 198 204 224 233 250 209 256 242 322 81 354 73 128 157 271 36 218 224 311 286 246 253 225 243
336 337 336 337 337 338 340 340 347 346 345 351 358 341 310 163 295 228 207 220 305 324 354 268 177 194 203 222 256 232 229 208 302 322 291 227 187 240 237 252 257 229 262 185 180 278 262
336 332 331 332 334 336 338 340 344 348 348 345 335 302 349 354 220 293 331 317 293 350 356 330 269 208 200 204 259 226 228 279 303 24 57 293 291 331 312 328 51 182 174 185 235 234 212
327 325 325 328 330 332 334 336 338 343 344 339 322 329 319 333 32 62 350 290 318 320 301 284 285 288 228 216 200 242 260 284 336 334 339 174 195 220 259 243 240 276 275 276 246 200 286
320 321 322 324 327 331 333 335 335 337 343 338 293 277 23 318 328 330 255 263 284 321 278 334 301 238 240 256 259 253 231 287 264 290 57 117 255 221 260 282 278 274 275 271 263 261 250
316 317 319 324 328 332 335 337 339 340 346 355 333 356 334 302 301 321 8 307 295 318 338 308 319 312 328 228 210 233 244 186 209 286 270 197 269 293 280 291 282 276 274 273 267 267 264
314 317 320 324 328 332 335 338 342 342 350 353 329 318 312 271 289 305 265 322 318 348 308 343 335 334 299 303 298 266 229 205 219 194 212 212 213 116 275 278 300 283 246 247 255 260 252
313 316 320 324 327 330 333 336 341 344 347 344 347 335 302 277 302 291 303 309 321 320 296 301 311 304 327 326 298 301 293 278 251 237 228 210 196 160 275 91 261 251 227 249 264 268 280
313 316 318 320 325 329 332 334 337 339 336 332 336 310 292 280 282 297 286 317 322 318 302 293 297 323 334 332 353 349 337 318 271 241 250 202 175 232 205 203 277 302 315 23 1 279 119
311 314 317 320 323 326 328 330 331 332 329 326 336 291 295 290 304 295 313 311 294 301 309 295 316 323 322 283 300 257 227 195 274 291 65 175 202 175 159 242 246 216 19 324 291 250 12
309 311 313 316 320 323 324 324 326 325 325 322 316 314 312 289 287 285 269 295 297 296 286 303 322 334 318 254 256 237 244 221 246 234 330 325 357 195 212 247 267 306 295 302 10 304 337
306 309 310 314 318 320 320 320 323 321 322 322 307 328 312 282 278 278 280 276 276 267 260 280 317 313 326 245 221 234 213 82 298 344 326 215 24 294 318 242 276 359 15 11 241 304 308
305 306 307 310 315 316 317 316 317 315 318 319 302 308 302 288 268 282 278 270 262 264 261 269 257 301 321 341 340 330 330 308 278 269 241 250 154 197 231 241 308 340 287 307 324 316 315
Wind_Speed_850mb
56 57 58 59 62 63 64 63 61 57 52 44 36 31 29 30 32 30 24 11 5 5 5 8 13 20 25 11 4 10 11 12 19 22 29 28 33 19 8 10 23 5 9 38 36 37 37
54 55 56 58 60 62 63 63 61 57 53 46 38 30 28 28 31 32 25 11 3 4 7 9 14 20 26 6 8 11 10 7 4 12 17 17 12 21 12 10 4 14 33 42 39 51 56
55 55 55 57 60 62 62 62 62 59 53 48 41 32 26 25 28 29 23 10 3 4 7 11 17 24 28 10 8 17 18 20 15 12 17 11 17 13 15 15 10 16 15 20 14 22 9
54 55 57 59 61 63 64 63 62 60 57 50 43 36 26 22 23 24 20 10 7 11 14 17 20 25 19 11 13 16 16 18 9 9 18 21 28 19 8 10 12 9 7 8 16 15 8
55 56 58 60 61 63 67 67 65 62 59 54 47 39 32 23 19 19 15 14 13 12 15 18 18 11 16 7 16 10 11 10 18 18 19 21 23 16 5 6 10 11 3 8 15 17 9
56 57 58 59 62 64 66 68 70 66 61 56 51 44 35 25 20 16 17 21 16 17 18 19 23 16 12 4 5 1 6 8 20 22 28 15 12 3 7 9 5 10 7 8 13 13 17
56 57 58 59 61 63 66 68 68 68 65 60 54 46 38 28 19 15 10 16 24 6 14 28 36 34 50 14 19 10 13 8 13 15 7 22 7 12 17 16 12 7 7 12 14 19 8
57 58 58 60 62 64 65 67 67 68 66 62 56 50 40 28 12 11 15 19 16 34 30 39 44 49 49 42 18 18 20 8 6 9 17 13 8 15 17 10 3 8 10 13 10 7 12
56 56 57 59 62 65 68 68 68 67 67 62 58 52 42 26 9 10 19 15 18 27 14 37 19 30 33 30 31 27 31 8 3 7 13 9 17 12 4 7 9 6 4 9 15 9 5
56 56 56 57 59 63 67 70 70 68 64 64 57 54 46 23 7 4 13 20 33 30 8 12 9 10 23 18 10 23 29 14 3 7 10 11 8 13 16 13 7 7 8 9 16 13 10
56 57 58 58 59 62 65 69 70 69 66 61 58 54 43 28 6 3 16 18 22 15 7 7 9 10 19 15 5 8 36 18 14 15 6 18 14 24 19 19 10 13 8 8 10 14 5
56 57 57 59 62 64 67 69 72 71 69 63 54 50 45 28 12 8 12 19 17 9 10 6 13 12 6 14 20 9 23 19 12 10 8 20 30 10 13 15 9 5 5 12 8 6 1
55 56 58 61 63 66 68 69 70 70 69 67 57 45 43 27 8 6 11 8 9 6 11 4 5 5 4 11 9 5 10 6 5 7 12 11 9 11 6 6 15 16 14 9 10 8 10
54 55 57 60 61 64 69 72 71 68 67 69 60 48 38 24 16 3 7 9 4 9 8 5 7 9 5 10 10 6 5 5 11 10 7 9 13 10 4 4 6 9 13 9 8 6 10
55 52 55 57 60 62 67 73 74 71 68 72 62 48 33 7 18 7 3 6 13 10 6 8 7 4 5 5 7 15 10 9 8 3 7 5 10 7 3 5 7 8 10 12 7 7 3
54 53 55 58 61 66 70 70 73 74 70 68 67 51 16 22 18 14 7 11 10 11 28 4 7 4 4 9 7 10 5 7 11 12 7 7 9 6 8 6 3 9 5 10 5 8 12
57 55 58 58 61 64 67 68 69 71 70 66 47 28 9 10 19 8 6 14 12 28 28 12 11 6 8 6 9 5 11 12 4 8 8 3 5 9 6 4 10 11 6 5 4 8 9
49 46 51 57 60 61 63 65 67 69 70 65 37 11 4 14 8 4 6 9 10 15 23 15 10 15 14 9 6 7 12 8 37 11 11 7 7 8 16 14 24 14 24 10 6 15 8
43 47 53 56 58 60 62 64 64 61 62 63 46 23 17 19 4 5 15 12 12 12 13 11 8 12 11 13 6 12 10 13 33 7 6 3 4 8 17 13 8 8 6 6 7 4 12
47 53 56 57 58 58 58 59 58 53 48 48 17 7 17 19 14 9 12 10 13 22 26 20 18 25 13 12 11 9 6 6 26 16 15 5 10 16 26 21 8 21 29 23 14 5 24
57 57 56 54 55 55 54 53 51 48 42 34 6 7 11 9 7 18 9 10 26 15 12 32 13 12 9 7 5 10 7 6 5 13 4 5 10 11 17 20 22 34 41 36 39 40 28
54 52 51 50 50 50 49 50 50 48 38 15 14 15 21 24 32 21 8 7 23 17 16 26 17 22 11 8 13 13 9 9 12 6 3 1 15 8 39 24 31 46 36 35 37 45 46
46 46 46 46 46 46 46 45 45 44 38 13 18 24 12 15 10 9 10 14 33 24 20 33 35 20 12 16 17 17 20 15 15 11 11 12 7 5 50 15 20 30 26 41 36 38 33
42 42 42 42 42 42 41 39 37 35 33 28 26 20 10 8 7 9 31 40 25 30 25 39 45 20 24 53 35 18 22 26 27 25 41 14 12 9 21 2 19 16 9 15 16 18 17
39 39 39 39 38 38 38 36 34 31 27 25 22 12 9 9 15 32 36 33 49 49 36 39 28 25 52 31 8 10 9 10 11 21 22 28 9 5 6 12 23 23 12 9 9 5 1
37 37 37 36 36 36 36 34 32 29 27 24 14 5 12 18 4 23 28 31 23 13 14 17 54 61 31 5 2 5 8 2 8 10 6 14 19 12 6 9 10 5 20 39 8 7 10
36 35 35 34 34 34 33 32 31 30 26 25 22 12 18 22 40 23 17 16 19 24 18 38 31 25 33 3 5 9 11 10 9 9 3 10 5 10 14 13 8 3 14 16 2 9 35
34 33 33 33 33 33 33 32 29 30 27 27 33 15 20 22 70 78 77 60 48 38 16 28 24 9 7 4 6 8 7 2 7 9 12 7 1 5 6 7 10 30 8 3 8 27 34
32 32 32 32 33 32 33 33 33 29 28 26 37 26 30 42 68 88 99 98 91 81 63 40 27 31 8 7 6 7 8 4 14 9 10 8 9 5 7 10 21 22 17 28 35 41 42
Wind_Direction_850mb
34 32 29 28 26 24 22 20 20 20 18 17 13 13 13 12 10 6 0 357 8 348 335 347 355 353 1 342 283 52 62 58 50 22 20 26 31 9 4 325 342 79 320 334 323 310 300
32 30 27 24 22 21 19 17 15 14 14 13 9 4 3 5 7 4 360 356 0 353 347 339 339 340 345 323 340 359 6 356 111 47 11 1 1 338 321 317 6 314 321 308 306 306 292
27 26 24 22 20 17 15 13 11 10 9 9 6 357 352 355 360 3 1 359 294 288 317 327 331 332 324 282 330 324 311 328 305 296 326 320 335 334 335 325 325 299 314 319 303 308 294
25 23 21 19 18 16 13 10 9 7 5 4 4 358 344 340 351 355 4 355 317 283 285 300 313 317 287 256 270 306 322 307 289 295 288 303 302 287 248 284 328 295 71 360 293 339 287
20 19 17 16 18 18 15 12 9 5 3 360 359 357 348 330 334 344 341 339 305 294 294 298 312 322 286 266 243 316 287 254 307 322 258 287 288 255 268 64 359 11 248 292 312 290 279
17 15 14 13 12 12 11 10 8 5 1 359 355 353 349 331 325 324 328 346 326 282 274 297 276 293 252 194 345 293 245 280 304 306 294 269 240 336 18 79 238 254 275 277 288 277 342
11 9 8 7 7 5 5 5 4 3 1 358 353 351 347 335 319 326 327 353 358 349 305 268 271 258 282 283 314 267 255 292 349 291 280 313 100 230 230 205 211 241 254 268 273 302 341
7 4 3 1 0 0 1 1 1 359 359 357 352 349 347 337 315 328 339 333 339 326 293 286 267 262 262 267 283 305 221 208 22 307 329 354 280 265 220 232 293 297 297 300 291 287 331
3 1 360 359 358 357 357 358 357 357 354 356 353 347 345 340 294 312 344 3 334 331 298 301 237 233 246 232 225 263 211 163 143 285 306 209 249 327 314 293 313 299 246 277 279 295 311
1 360 359 358 357 356 354 354 354 354 351 350 355 345 344 346 311 315 40 24 341 324 35 278 193 226 216 209 257 256 223 201 145 258 276 266 278 334 327 305 135 223 228 285 304 343 304
358 358 357 356 354 353 352 350 350 351 350 347 350 345 343 334 309 303 320 335 335 327 346 203 176 194 190 192 234 213 205 180 181 213 159 243 287 295 295 262 183 231 240 270 278 253 34
354 355 354 353 352 351 350 348 347 348 347 344 344 344 335 323 241 338 333 320 314 45 264 227 155 197 170 235 252 205 185 218 249 198 219 244 264 217 238 288 188 253 3 335 328 112 87
349 349 349 349 349 349 349 347 345 344 344 340 341 336 327 308 254 296 333 351 39 154 300 59 95 50 257 240 272 272 195 189 204 300 285 296 252 309 155 41 353 35 47 336 344 1 221
343 343 343 345 347 347 347 347 346 345 343 339 336 331 316 301 182 276 4 55 194 252 288 47 12 317 235 353 290 217 200 264 287 185 257 214 322 166 26 85 240 266 158 164 259 233 256
336 338 338 341 343 344 345 344 342 342 345 340 340 334 322 210 161 151 174 97 213 235 338 5 339 276 292 24 30 29 341 241 247 99 198 247 243 291 79 96 91 293 292 210 214 245 340
336 336 339 341 342 342 343 347 345 343 342 345 342 333 333 173 176 175 97 224 238 280 293 188 204 283 264 320 20 27 273 292 342 55 52 322 306 273 345 27 302 158 245 305 355 300 251
335 341 341 340 340 341 342 344 349 346 344 350 350 335 65 169 186 204 183 231 262 285 291 198 204 224 233 250 209 256 242 322 81 354 73 128 157 271 36 218 224 311 286 246 253 225 243
336 337 336 337 337 338 340 340 347 346 345 351 358 341 310 163 295 228 207 220 305 324 354 268 177 194 203 222 256 232 229 208 302 322 291 227 187 240 237 252 257 229 262 185 180 278 262
336 332 331 332 334 336 338 340 344 348 348 345 335 302 349 354 220 293 331 317 293 350 356 330 269 208 200 204 259 226 228 279 303 24 57 293 291 331 312 328 51 182 174 185 235 234 212
327 325 325 328 330 332 334 336 338 343 344 339 322 329 319 333 32 62 350 290 318 320 301 284 285 288 228 216 200 242 260 284 336 334 339 174 195 220 259 243 240 276 275 276 246 200 286
320 321 322 324 327 331 333 335 335 337 343 338 293 277 23 318 328 330 255 263 284 321 278 334 301 238 240 256 259 253 231 287 264 290 57 117 255 221 260 282 278 274 275 271 263 261 250
316 317 319 324 328 332 335 337 339 340 346 355 333 356 334 302 301 321 8 307 295 318 338 308 319 312 328 228 210 233 244 186 209 286 270 197 269 293 280 291 282 276 274 273 267 267 264
314 317 320 324 328 332 335 338 342 342 350 353 329 318 312 271 289 305 265 322 318 348 308 343 335 334 299 303 298 266 229 205 219 194 212 212 213 116 275 278 300 283 246 247 255 260 252
313 316 320 324 327 330 333 336 341 344 347 344 347 335 302 277 302 291 303 309 321 320 296 301 311 304 327 326 298 301 293 278 251 237 228 210 196 160 275 91 261 251 227 249 264 268 280
313 316 318 320 325 329 332 334 337 339 336 332 336 310 292 280 282 297 286 317 322 318 302 293 297 323 334 332 353 349 337 318 271 241 250 202 175 232 205 203 277 302 315 23 1 279 119
311 314 317 320 323 326 328 330 331 332 329 326 336 291 295 290 304 295 313 311 294 301 309 295 316 323 322 283 300 257 227 195 274 291 65 175 202 175 159 242 246 216 19 324 291 250 12
309 311 313 316 320 323 324 324 326 325 325 322 316 314 312 289 287 285 269 295 297 296 286 303 322 334 318 254 256 237 244 221 246 234 330 325 357 195 212 247 267 306 295 302 10 304 337
306 309 310 314 318 320 320 320 323 321 322 322 307 328 312 282 278 278 280 276 276 267 260 280 317 313 326 245 221 234 213 82 298 344 326 215 24 294 318 242 276 359 15 11 241 304 308
305 306 307 310 315 316 317 316 317 315 318 319 302 308 302 288 268 282 278 270 262 264 261 269 257 301 321 341 340 330 330 308 278 269 241 250 154 197 231 241 308 340 287 307 324 316 315